Weather History for Iron Mountain, MI

Change the Weather History Date:

Wednesday, November 21, 2012

  Actual Average Record
Temperature  
Mean Temperature 42 °F -  
Max Temperature 50 °F 36 °F 60 °F (1982)
Min Temperature 33 °F 20 °F 1 °F (1969)
Degree Days  
Heating Degree Days 24    
Moisture  
Dew Point 37 °F    
Average Humidity 89    
Maximum Humidity 100    
Minimum Humidity 63    
Precipitation  
Precipitation 0.00 in - - ()
Sea Level Pressure  
Sea Level Pressure 30.02 in    
Wind  
Wind Speed 5 mph (SSE)    
Max Wind Speed 15 mph    
Max Gust Speed 21 mph    
Visibility 4 miles    
Events Fog    
Averages and records for this station are not official NWS values.
T = Trace of Precipitation, MM = Missing Value Source: NWS Daily Summary

Daily Weather History Graph

Daily Weather History Graph

Search for Another Location

Airport:

Trip Planner

Search our weather history database for the weather conditions in past years. The results will help you decide how hot, cold, wet, or windy it might be!

Date:

Astronomy

Nov. 21, 2012 Rise Set
Actual Time 7:01 AM CST 4:15 PM CST
Civil Twilight 6:28 AM CST 4:48 PM CST
Nautical Twilight 5:51 AM CST 5:24 PM CST
Astronomical Twilight 5:16 AM CST 6:00 PM CST
Moon 12:49 PM CST (11/21) 12:00 AM CST (11/21)
Length of Visible Light 10h 19m
Length of Day
9h 13m
First Quarter, 62% of the Moon is Illuminated
Nov 21
First Quarter
Nov 28
Full
Dec 6
Last Quarter
Dec 13
New
Dec 19
First Quarter

Hourly Weather History & Observations

Time (CST) Temp. Windchill Dew Point Humidity Pressure Visibility Wind Dir Wind Speed Gust Speed Precip Events Conditions
12:54 AM 37.9 °F 34.4 °F 37.9 °F 100% 30.13 in 0.2 mi SSE 4.6 mph - N/A Fog Fog
1:54 AM 37.9 °F - 37.0 °F 97% 30.12 in 0.2 mi Calm Calm - N/A Fog Fog
2:44 AM 37.4 °F - 37.4 °F 100% 30.09 in 0.2 mi Calm Calm - N/A Fog Fog
2:54 AM 37.0 °F 34.5 °F 36.0 °F 96% 30.11 in 0.2 mi South 3.5 mph - N/A Fog Fog
3:54 AM 35.1 °F 32.2 °F 35.1 °F 100% 30.11 in 0.2 mi South 3.5 mph - N/A Fog Fog
4:10 AM 35.6 °F - 35.6 °F 100% 30.08 in 0.2 mi Calm Calm - N/A Fog Fog
4:17 AM 35.6 °F 32.8 °F 35.6 °F 100% 30.08 in 0.2 mi South 3.5 mph - N/A Fog Fog
4:54 AM 34.0 °F - 34.0 °F 100% 30.14 in 0.2 mi Calm Calm - N/A Fog Fog
5:54 AM 34.0 °F 31.0 °F 34.0 °F 100% 30.12 in 0.2 mi SSE 3.5 mph - N/A Fog Fog
6:54 AM 34.0 °F 31.0 °F 33.1 °F 96% 30.11 in 0.2 mi SSE 3.5 mph - N/A Fog Fog
7:39 AM 33.8 °F 27.7 °F 33.8 °F 100% 30.06 in 0.2 mi SE 6.9 mph - N/A Fog Fog
7:54 AM 34.0 °F 29.8 °F 33.1 °F 96% 30.11 in 0.2 mi SE 4.6 mph - N/A Fog Fog
8:54 AM 36.0 °F 31.1 °F 36.0 °F 100% 30.09 in 0.2 mi SSE 5.8 mph - N/A Fog Fog
9:17 AM 37.4 °F 31.4 °F 35.6 °F 93% 30.04 in 0.5 mi SSE 8.1 mph - N/A Fog Fog
9:54 AM 39.0 °F 32.8 °F 37.9 °F 96% 30.08 in 1.0 mi SSE 9.2 mph - N/A   Overcast
10:34 AM 41.0 °F 35.8 °F 39.2 °F 93% 30.02 in 2.0 mi SE 8.1 mph - N/A   Mostly Cloudy
10:49 AM 42.8 °F 37.0 °F 39.2 °F 87% 30.01 in 3.0 mi SSE 10.4 mph - N/A   Scattered Clouds
10:54 AM 42.1 °F 36.1 °F 39.9 °F 92% 30.04 in 3.0 mi SE 10.4 mph - N/A   Partly Cloudy
11:54 AM 46.9 °F - 39.0 °F 74% 29.99 in 7.0 mi SSE 8.1 mph - N/A   Clear
12:54 PM 48.9 °F - 37.0 °F 64% 29.96 in 10.0 mi SSE 10.4 mph 20.7 mph N/A   Clear
1:54 PM 50.0 °F - 37.9 °F 63% 29.94 in 10.0 mi South 10.4 mph - N/A   Clear
2:54 PM 50.0 °F - 37.9 °F 63% 29.93 in 10.0 mi South 15.0 mph 20.7 mph N/A   Clear
3:54 PM 46.9 °F - 39.9 °F 77% 29.94 in 8.0 mi SE 6.9 mph - N/A   Clear
4:54 PM 46.0 °F 44.8 °F 39.0 °F 76% 29.94 in 8.0 mi SSE 3.5 mph - N/A   Clear
5:54 PM 45.0 °F 42.6 °F 37.9 °F 76% 29.94 in 10.0 mi SSE 4.6 mph - N/A   Clear
6:54 PM 43.0 °F 40.3 °F 37.0 °F 80% 29.94 in 10.0 mi SE 4.6 mph - N/A   Clear
7:54 PM 42.1 °F - 37.0 °F 82% 29.93 in 10.0 mi Calm Calm - N/A   Clear
8:54 PM 39.9 °F 36.7 °F 37.0 °F 89% 29.92 in 9.0 mi SE 4.6 mph - N/A   Clear
9:54 PM 41.0 °F 37.1 °F 37.0 °F 86% 29.90 in 8.0 mi SE 5.8 mph - N/A   Clear
10:54 PM 39.9 °F 35.8 °F 37.0 °F 89% 29.89 in 6.0 mi SE 5.8 mph - N/A   Clear
11:54 PM 39.0 °F 34.8 °F 37.0 °F 93% 29.88 in 5.0 mi SE 5.8 mph - N/A   Clear